Regional Weather Roundup
Issued by NWS Charleston, WV

Home | Current Version | Previous Version | Graphics & Text | Print | Product List | Glossary On
Versions: 1 2 3 4 5 6 7 8 9 10 11 12 13 14 15 16 17 18 19 20 21 22 23 24 25 26 27 28 29 30 31 32 33 34 35 36 37 38 39 40 41 42 43 44 45 46 47 48 49 50
000
ASUS41 KRLX 020410
RWRRLX
West Virginia Regional Weather Roundup
National Weather Service Charleston WV
1100 PM EST SUN MAR 01 2015

Note: "fair" indicates few or no clouds below 12,000 feet with no
significant weather and/or obstructions to visibility.

WVZ003-020500-
Northern Panhandle of West Virginia

CITY           SKY/WX    TMP DP  RH WIND       PRES   REMARKS
WHEELING       CLOUDY    34  32  92 W12       30.18S
$$

WVZ009-020500-
Northwest West Virginia

CITY           SKY/WX    TMP DP  RH WIND       PRES   REMARKS
PARKERSBURG    LGT RAIN  37  33  85 W7        30.25F
$$

WVZ006-020500-
Western West Virginia

CITY           SKY/WX    TMP DP  RH WIND       PRES   REMARKS
HUNTINGTON     LGT RAIN  38  38 100 N9        30.26R VSB 1/2
$$

WVZ015-020500-
West Central West Virginia

CITY           SKY/WX    TMP DP  RH WIND       PRES   REMARKS
CHARLESTON     LGT RAIN  43  42  97 W7        30.24S VSB 1
$$

WVZ022-031-020500-
North Central West Virginia

CITY           SKY/WX    TMP DP  RH WIND       PRES   REMARKS
CLARKSBURG     LGT RAIN  40  38  93 W9        30.20R
MORGANTOWN     CLOUDY    39  35  86 SW5       30.17F
$$

WVZ025-035-042-045-020500-
Southern West Virginia

CITY           SKY/WX    TMP DP  RH WIND       PRES   REMARKS
BECKLEY        FOG       42  40  92 W9        30.21F VSB 1/2
LOGAN          FOG       43  43 100 SW6       30.20F VSB 1/2
BLUEFIELD      CLOUDY    45  42  89 W16G22    30.23F FOG
LEWISBURG      CLOUDY    37  37  97 SW6       30.21F FOG
$$

WVZ047-020500-
Northern Mountains of West Virginia

CITY           SKY/WX    TMP DP  RH WIND       PRES   REMARKS
ELKINS         LGT RAIN  42  40  92 W10G18    30.18F FOG
$$

WVZ052-020500-
Eastern Panhandle of West Virginia

CITY           SKY/WX    TMP DP  RH WIND       PRES   REMARKS
MARTINSBURG    CLOUDY    32  28  85 N3        30.18F FOG
PETERSBURG     CLOUDY    34  34 100 E5        30.15F FOG
$$



USA.gov is the U.S. government's official web portal to all federal, state and local government web resources and services.